• In Switzerland
  • List of Countries
  • For 7 days
  • Water Temperature
  • Satellite Maps
  • Weather Map
  • Weather Widgets
  • user-avatar
    Login

    Hourly Weather Estelí

    Today, 18 October, Thursday

    Time Temperature Precipitation Wind Pressure Humidity
    00:00 +18°C° 0 mm 0 mps 686 mmHg 95%
    01:00 +20°C° 0.2 mm 1 mps 686 mmHg 95%
    02:00 +20°C° 0.2 mm 1 mps 685 mmHg 95%
    03:00 +20°C° 0.2 mm 1 mps 685 mmHg 95%
    04:00 +20°C° 0.2 mm 1 mps 686 mmHg 95%
    05:00 +20°C° 0.2 mm 1 mps 686 mmHg 96%
    06:00 +20°C° 0.2 mm 1 mps 686 mmHg 96%
    07:00 +21°C° 0.2 mm 1 mps 687 mmHg 92%
    08:00 +23°C° 0.2 mm 1 mps 687 mmHg 89%
    09:00 +24°C° 0.2 mm 1 mps 688 mmHg 86%
    10:00 +24°C° 0.7 mm 1 mps 688 mmHg 85%
    11:00 +24°C° 0.7 mm 1 mps 687 mmHg 85%
    12:00 +25°C° 0.7 mm 1 mps 687 mmHg 85%
    13:00 +24°C° 1.3 mm 1 mps 686 mmHg 86%
    14:00 +24°C° 1.3 mm 1 mps 686 mmHg 88%
    15:00 +24°C° 1.3 mm 1 mps 686 mmHg 90%
    16:00 +23°C° 1.3 mm 1 mps 686 mmHg 92%
    17:00 +22°C° 1.3 mm 1 mps 686 mmHg 94%
    18:00 +19°C° 1.3 mm 0 mps 686 mmHg 95%
    19:00 +19°C° 1.1 mm 0 mps 686 mmHg 95%
    20:00 +19°C° 1.1 mm 0 mps 687 mmHg 95%
    21:00 +19°C° 1.1 mm 0 mps 687 mmHg 95%
    22:00 +21°C° 0.6 mm 1 mps 687 mmHg 96%
    23:00 +21°C° 0.6 mm 1 mps 687 mmHg 96%

    Tomorrow, 19 October, Friday

    Time Temperature Precipitation Wind Pressure Humidity
    00:00 +21°C° 0.6 mm 1 mps 687 mmHg 96%
    01:00 +20°C° 0.2 mm 1 mps 686 mmHg 96%
    02:00 +20°C° 0.2 mm 1 mps 686 mmHg 96%
    03:00 +20°C° 0.2 mm 1 mps 686 mmHg 96%
    04:00 +20°C° 0 mm 1 mps 686 mmHg 96%
    05:00 +20°C° 0 mm 1 mps 686 mmHg 96%
    06:00 +20°C° 0 mm 1 mps 686 mmHg 96%
    07:00 +21°C° 0 mm 1 mps 687 mmHg 91%
    08:00 +23°C° 0 mm 1 mps 687 mmHg 86%
    09:00 +24°C° 0 mm 1 mps 688 mmHg 82%
    10:00 +26°C° 0 mm 2 mps 687 mmHg 77%
    11:00 +27°C° 0 mm 2 mps 687 mmHg 73%
    12:00 +28°C° 0 mm 2 mps 687 mmHg 68%
    13:00 +28°C° 0.1 mm 2 mps 686 mmHg 69%
    14:00 +28°C° 0.1 mm 2 mps 685 mmHg 69%
    15:00 +28°C° 0.1 mm 1 mps 685 mmHg 70%
    16:00 +26°C° 0.8 mm 1 mps 685 mmHg 76%
    17:00 +25°C° 0.8 mm 1 mps 685 mmHg 83%
    18:00 +23°C° 0.8 mm 1 mps 685 mmHg 90%
    19:00 +22°C° 1.1 mm 1 mps 685 mmHg 91%
    20:00 +22°C° 1.1 mm 1 mps 686 mmHg 92%
    21:00 +21°C° 1.1 mm 1 mps 687 mmHg 94%
    22:00 +21°C° 0 mm 1 mps 686 mmHg 94%
    23:00 +21°C° 0 mm 1 mps 686 mmHg 94%

    Day after tomorrow, 20 October, Saturday

    Time Temperature Precipitation Wind Pressure Humidity
    00:00 +21°C° 0 mm 1 mps 686 mmHg 94%
    01:00 +21°C° 0 mm 1 mps 686 mmHg 94%
    02:00 +21°C° 0 mm 1 mps 685 mmHg 94%
    03:00 +21°C° 0 mm 1 mps 685 mmHg 94%
    04:00 +21°C° 0 mm 1 mps 685 mmHg 94%
    05:00 +21°C° 0 mm 1 mps 685 mmHg 94%
    06:00 +21°C° 0 mm 1 mps 686 mmHg 94%
    07:00 +22°C° 0 mm 1 mps 686 mmHg 89%
    08:00 +24°C° 0 mm 2 mps 687 mmHg 83%
    09:00 +26°C° 0 mm 2 mps 688 mmHg 78%
    10:00 +26°C° 0.6 mm 2 mps 687 mmHg 75%
    11:00 +27°C° 0.6 mm 2 mps 687 mmHg 73%
    12:00 +28°C° 0.6 mm 2 mps 686 mmHg 71%
    13:00 +27°C° 1.9 mm 2 mps 685 mmHg 73%
    14:00 +27°C° 1.9 mm 2 mps 685 mmHg 75%
    15:00 +26°C° 1.9 mm 2 mps 684 mmHg 78%
    16:00 +25°C° 0.5 mm 2 mps 684 mmHg 82%
    17:00 +24°C° 0.5 mm 2 mps 685 mmHg 86%
    18:00 +22°C° 0.5 mm 1 mps 685 mmHg 90%
    19:00 +22°C° 0 mm 1 mps 685 mmHg 91%
    20:00 +22°C° 0 mm 1 mps 686 mmHg 92%
    21:00 +21°C° 0 mm 1 mps 686 mmHg 92%
    22:00 +21°C° 0 mm 1 mps 686 mmHg 93%
    23:00 +21°C° 0 mm 1 mps 686 mmHg 93%

    21 October, Sunday

    Time Temperature Precipitation Wind Pressure Humidity
    00:00 +20°C° 0 mm 1 mps 686 mmHg 94%
    01:00 +20°C° 0 mm 1 mps 685 mmHg 94%
    02:00 +20°C° 0 mm 1 mps 685 mmHg 94%
    03:00 +20°C° 0 mm 1 mps 685 mmHg 94%
    04:00 +19°C° 0 mm 2 mps 685 mmHg 94%
    05:00 +19°C° 0 mm 2 mps 685 mmHg 94%
    06:00 +19°C° 0 mm 2 mps 686 mmHg 94%
    07:00 +20°C° 0 mm 2 mps 686 mmHg 88%
    08:00 +23°C° 0 mm 2 mps 687 mmHg 82%
    09:00 +24°C° 0 mm 2 mps 688 mmHg 76%
    10:00 +25°C° 0 mm 2 mps 687 mmHg 71%
    11:00 +26°C° 0 mm 2 mps 687 mmHg 67%
    12:00 +27°C° 0 mm 2 mps 686 mmHg 63%
    13:00 +27°C° 0 mm 2 mps 686 mmHg 64%
    14:00 +28°C° 0 mm 2 mps 685 mmHg 65%
    15:00 +28°C° 0 mm 2 mps 685 mmHg 66%
    16:00 +26°C° 0 mm 2 mps 685 mmHg 71%
    17:00 +24°C° 0 mm 2 mps 685 mmHg 76%
    18:00 +22°C° 0 mm 1 mps 685 mmHg 81%
    19:00 +22°C° 0 mm 1 mps 686 mmHg 83%
    20:00 +20°C° 0 mm 2 mps 686 mmHg 85%
    21:00 +20°C° 0 mm 2 mps 686 mmHg 87%
    22:00 +19°C° 0 mm 2 mps 686 mmHg 88%
    23:00 +19°C° 0 mm 2 mps 686 mmHg 89%

    22 October, Monday

    Time Temperature Precipitation Wind Pressure Humidity
    00:00 +19°C° 0 mm 2 mps 686 mmHg 91%
    01:00 +19°C° 0 mm 2 mps 685 mmHg 91%
    02:00 +18°C° 0 mm 2 mps 685 mmHg 92%
    03:00 +18°C° 0 mm 2 mps 685 mmHg 93%
    04:00 +18°C° 0 mm 2 mps 685 mmHg 93%
    05:00 +18°C° 0 mm 2 mps 686 mmHg 93%
    06:00 +18°C° 0 mm 2 mps 686 mmHg 93%
    07:00 +20°C° 0 mm 2 mps 687 mmHg 87%
    08:00 +23°C° 0 mm 2 mps 687 mmHg 80%
    09:00 +25°C° 0 mm 2 mps 688 mmHg 74%
    10:00 +25°C° 0 mm 2 mps 688 mmHg 70%
    11:00 +26°C° 0 mm 2 mps 687 mmHg 67%
    12:00 +27°C° 0 mm 2 mps 687 mmHg 64%
    13:00 +27°C° 0 mm 2 mps 686 mmHg 64%
    14:00 +28°C° 0 mm 2 mps 686 mmHg 65%
    15:00 +28°C° 0 mm 2 mps 685 mmHg 65%
    16:00 +26°C° 0 mm 2 mps 685 mmHg 70%
    17:00 +24°C° 0 mm 2 mps 685 mmHg 76%
    18:00 +22°C° 0 mm 1 mps 686 mmHg 81%
    19:00 +22°C° 0 mm 1 mps 686 mmHg 82%
    20:00 +21°C° 0 mm 1 mps 686 mmHg 84%
    21:00 +20°C° 0 mm 2 mps 687 mmHg 85%
    22:00 +19°C° 0 mm 2 mps 687 mmHg 87%
    23:00 +20°C° 0 mm 1 mps 686 mmHg 89%

    23 October, Tuesday

    Time Temperature Precipitation Wind Pressure Humidity
    00:00 +19°C° 0 mm 1 mps 686 mmHg 90%
    01:00 +19°C° 0 mm 1 mps 686 mmHg 91%
    02:00 +19°C° 0 mm 1 mps 686 mmHg 92%
    03:00 +19°C° 0 mm 1 mps 685 mmHg 93%
    04:00 +19°C° 0 mm 1 mps 686 mmHg 93%
    05:00 +19°C° 0 mm 1 mps 686 mmHg 93%
    06:00 +18°C° 0 mm 2 mps 687 mmHg 93%
    07:00 +20°C° 0 mm 2 mps 687 mmHg 87%
    08:00 +23°C° 0 mm 2 mps 688 mmHg 80%
    09:00 +25°C° 0 mm 2 mps 688 mmHg 73%
    10:00 +26°C° 0 mm 2 mps 688 mmHg 69%
    11:00 +27°C° 0 mm 2 mps 687 mmHg 65%
    12:00 +27°C° 0 mm 3 mps 687 mmHg 61%
    13:00 +28°C° 0 mm 2 mps 686 mmHg 63%
    14:00 +28°C° 0 mm 2 mps 686 mmHg 64%
    15:00 +28°C° 0 mm 2 mps 685 mmHg 66%
    16:00 +26°C° 0 mm 2 mps 685 mmHg 72%
    17:00 +24°C° 0 mm 2 mps 686 mmHg 78%
    18:00 +23°C° 0 mm 1 mps 686 mmHg 84%
    19:00 +22°C° 0 mm 1 mps 686 mmHg 86%
    20:00 +21°C° 0 mm 1 mps 687 mmHg 88%
    21:00 +21°C° 0 mm 1 mps 687 mmHg 90%
    22:00 +21°C° 0 mm 1 mps 687 mmHg 91%
    23:00 +21°C° 0 mm 1 mps 687 mmHg 91%
    Show more